Regional Weather Roundup
Issued by NWS

Home | Current Version | Previous Version | Text Only | Print | Product List | Glossary Off
Versions: 1 2 3 4 5 6 7 8 9 10 11 12 13 14 15 16 17 18 19 20 21 22 23 24 25 26 27 28 29 30 31 32 33 34 35 36 37 38 39 40 41 42 43 44 45 46 47 48 49 50

000
ASUS43 KMKX 191059
RWRWI

WISCONSIN REGIONAL WEATHER ROUNDUP
NATIONAL WEATHER SERVICE MILWAUKEE/SULLIVAN WI
500 AM CST MON FEB 19 2018

NOTE: "FAIR" INDICATES FEW OR NO CLOUDS BELOW 12,000 FEET WITH NO
SIGNIFICANT WEATHER AND/OR OBSTRUCTIONS TO VISIBILITY.

WIZ001-002-006>008-014>016-023>028-191200-
NORTHWEST WISCONSIN

CITY           SKY/WX    TMP DP  RH WIND       PRES   REMARKS
SUPERIOR ARPT  CLOUDY    17  11  75 NE10G18   29.98F WCI   5
ASHLAND        LGT SNOW  19  17  92 N16       29.97S VSB 1   WCI   4
HAYWARD        LGT SNOW  20  16  84 NE12      29.91R FOG     WCI   8
SIREN          FLURRIES  21  17  84 NE12G18   29.90R WCI   9
CUMBERLAND     CLOUDY    23  19  86 NE18G24   29.84R WCI   9
RICE LAKE      CLOUDY    25  21  87 N20       29.84R WCI  11
CHETEK         CLOUDY    29  24  84 N10       29.82R WCI  19
LADYSMITH      CLOUDY    28  23  83 N17       29.83S WCI  15
EAU CLAIRE     NOT AVBL
MENOMONIE      FAIR      28  23  82 N9        29.79F WCI  19
NEW RICHMOND   CLOUDY    25  20  81 N18G24    29.81F WCI  12
OSCEOLA        CLOUDY    25  21  84 N13G20    29.87F WCI  13
$$

WIZ003>005-009-010-017-018-191200-
NORTH CENTRAL WISCONSIN

CITY           SKY/WX    TMP DP  RH WIND       PRES   REMARKS
MANITOWISH WTR CLOUDY    17  17 100 N9        29.84S WCI   6
ARBOR VITAE    CLOUDY    25  21  87 N9G18     29.84R WCI  15
WOODRUFF       CLOUDY    25  21  87 N9G18     29.84R WCI  15
RHINELANDER    CLOUDY    29  26  89 NE3       29.80R
EAGLE RIVER    CLOUDY    26  22  85 N14       29.83R WCI  14
LAND O LAKES   CLOUDY    22  21  96 N13       29.86R FOG     WCI  10
PHILLIPS       CLOUDY    25  23  92 N9G18     29.82R WCI  16
TOMAHAWK       CLOUDY    25  23  91 CALM      29.80R
MEDFORD        FAIR      19  18  95 N8        29.77R FOG     WCI   9
MERRILL        FAIR      23  23  99 NE3       29.80R FOG
$$

WIZ029-030-035-036-043>047-191200-
CENTRAL WISCONSIN

CITY           SKY/WX    TMP DP  RH WIND       PRES   REMARKS
WAUSAU         FAIR      22  22 100 CALM      29.78R FOG
MOSINEE        FAIR      27  27 100 E6        29.78S FOG     WCI  20
MARSHFIELD     FAIR      25  24  96 NE5       29.77R FOG     WCI  19
STEVENS POINT  FAIR      20  20 100 NE3       29.80R
WAUPACA        FAIR      29  27  92 N3        29.81R FOG
WAUTOMA        CLOUDY    25  23  92 CALM      29.79R
WISC RAPIDS    MOCLDY    24  21  88 E3        29.80R
CAMP DOUGLAS   CLOUDY    35  30  81 NE3       29.76R
$$

WIZ011>013-019>022-031-037>040-048>050-191200-
NORTHEAST WISCONSIN

CITY           SKY/WX    TMP DP  RH WIND       PRES   REMARKS
ANTIGO         FAIR      18  17  96 NE3       29.79R FOG
SHAWANO        FAIR      26  23  91 CALM      29.82R FOG
OCONTO         CLOUDY    29  27  92 CALM      29.81F
STURGEON BAY   CLOUDY    35  32  88 MISG      29.83
GREEN BAY      CLOUDY    34  28  79 CALM      29.82R
MANITOWOC      CLOUDY    34  32  92 S6        29.83R WCI  29
APPLETON       CLOUDY    32  27  80 S5        29.78R WCI  27
CLINTONVILLE   FAIR      24  22  91 CALM      29.82R FOG
OSHKOSH        CLOUDY    37  31  78 S6        29.80R WCI  32
$$

WIZ032>034-041-042-053>061-191200-
SOUTHWEST WISCONSIN

CITY           SKY/WX    TMP DP  RH WIND       PRES   REMARKS
LA CROSSE      FAIR      33  29  85 CALM      29.74F
SPARTA         FAIR      30  27  89 CALM      29.77R
VIROQUA        CLOUDY    36  32  86 SE7       29.73S WCI  30
BOSCOBEL       CLOUDY    36  30  79 CALM      29.77R
PRAIRIE DU CHI CLOUDY    38  29  69 E7        29.74F WCI  33
PLATTEVILLE    FAIR      36  33  88 E7        29.76F WCI  31
$$

WIZ056-057-062-063-064-067-068-191200-
SOUTH CENTRAL WISCONSIN

CITY           SKY/WX    TMP DP  RH WIND       PRES   REMARKS
REEDSBURG      CLOUDY    37  31  80 S3        29.77R
BARABOO/DELLS  CLOUDY    37  30  76 S6        29.77S WCI  32
LONE ROCK      NOT AVBL
MINERAL POINT  CLOUDY    36  36 100 SE8       29.77S WCI  29
MADISON        CLOUDY    36  32  85 S6        29.81S WCI  31
MIDDLETON      CLOUDY    38  33  83 S6        29.80S WCI  33
WATERTOWN      CLOUDY    36  33  90 S3        29.81S
MONROE         FAIR      36  32  87 S9        29.79S WCI  29
JANESVILLE     CLOUDY    37  36  93 S5        29.81S WCI  34
$$

WIZ051-052-058>065-066-070>072-191200-
SOUTHEAST WISCONSIN

CITY           SKY/WX    TMP DP  RH WIND       PRES   REMARKS
MILWAUKEE      CLOUDY    40  34  79 SW8       29.82S WCI  34
WAUKESHA       CLOUDY    36  32  87 S5        29.83R WCI  32
MILWAUKEE/TIMM CLOUDY    37  30  75 SW7       29.83S WCI  32
RACINE         CLOUDY    39  34  82 SW7       29.85S WCI  34
BURLINGTON     CLOUDY    37  33  84 S8        29.83R WCI  31
KENOSHA        CLOUDY    40  34  79 SW7       29.84R
FOND DU LAC    CLOUDY    38  30  73 S12       29.80R WCI  30
SHEBOYGAN      CLOUDY    34  32  92 S5        29.82R WCI  30
WEST BEND      CLOUDY    36  32  87 SW3       29.82R
JUNEAU         CLOUDY    35  32  87 S7        29.82R WCI  29
$$

LSZ147-162-191200-
LAKE SUPERIOR

STATION/POSITION TIME  TEMP    WIND        PRES    WAVE
                       AIR SEA DIR/SP/G            HT/PER
                 (UTC) (F)     (DEG/KT/KT) (MB)    (FT/S)
DEVILS ISLAND    1000   20      30/ 16/ 21 1016.8R
SAXON HARBOR     1030   21      50/ 13/ 19 1013.9F
$$

LMZ867-665-643>646-191200-
LAKE MICHIGAN

STATION/POSITION TIME  TEMP    WIND        PRES    WAVE
                       AIR SEA DIR/SP/G            HT/PER
                 (UTC) (F)     (DEG/KT/KT) (MB)    (FT/S)
NORTHPORT PIER   1040   35                 1010.5S
KEWAUNEE LAKESHO 1030   34     170/  7/  8 1008.9F
SHEBOYGAN LAKESH 1000   35     180/ 13/ 15 1010.0F
PORT WASHINGTON  1030   34     200/  3/  6 1011.2R
MILWAUKEE LAKESH 1030   39     200/  7/  7   N/A
KENOSHA   LAKESH 1000   41     210/  5/  9 1010.8
$$

TC  - TEMPERATURE IN CELSIUS
VSB - VISIBILITY IN STATUTE MILES
WCI - WIND CHILL INDEX
HX  - HEAT INDEX





USA.gov is the U.S. government's official web portal to all federal, state and local government web resources and services.